TimeEDT,TemperatureF,Dew PointF,Humidity,Sea Level PressureIn,VisibilityMPH,Wind Direction,Wind SpeedMPH,Gust SpeedMPH,PrecipitationIn,Events,Conditions,WindDirDegrees,DateUTC
12:53 AM,78.1,64.0,62,30.15,10.0,ENE,10.4,-,N/A,,Partly Cloudy,70,2013-10-30 04:53:00
1:53 AM,78.1,64.0,62,30.14,10.0,ENE,9.2,-,N/A,,Scattered Clouds,60,2013-10-30 05:53:00
2:53 AM,78.1,64.0,62,30.13,10.0,East,12.7,17.3,N/A,,Partly Cloudy,80,2013-10-30 06:53:00
3:53 AM,77.0,64.0,64,30.12,10.0,ENE,12.7,16.1,N/A,,Partly Cloudy,70,2013-10-30 07:53:00
4:53 AM,77.0,64.9,66,30.12,10.0,ENE,5.8,-,N/A,,Scattered Clouds,60,2013-10-30 08:53:00
5:53 AM,77.0,64.9,66,30.12,10.0,NE,3.5,-,N/A,,Partly Cloudy,40,2013-10-30 09:53:00
6:53 AM,75.9,64.9,69,30.14,10.0,Variable,3.5,-,N/A,,Scattered Clouds,0,2013-10-30 10:53:00
7:53 AM,75.9,64.0,67,30.15,10.0,NNE,4.6,-,N/A,,Mostly Cloudy,20,2013-10-30 11:53:00
8:53 AM,80.1,64.0,58,30.16,10.0,East,11.5,-,N/A,,Scattered Clouds,80,2013-10-30 12:53:00
9:53 AM,81.0,66.0,60,30.17,10.0,NE,13.8,19.6,N/A,,Mostly Cloudy,50,2013-10-30 13:53:00
10:53 AM,82.9,66.9,58,30.18,10.0,ENE,15.0,21.9,N/A,,Mostly Cloudy,70,2013-10-30 14:53:00
11:53 AM,82.0,66.0,58,30.18,10.0,NE,16.1,23.0,N/A,,Mostly Cloudy,50,2013-10-30 15:53:00
12:53 PM,84.0,64.0,51,30.16,10.0,ENE,17.3,24.2,N/A,,Mostly Cloudy,70,2013-10-30 16:53:00
1:53 PM,81.0,64.9,58,30.12,10.0,ENE,11.5,23.0,N/A,,Mostly Cloudy,60,2013-10-30 17:53:00
2:53 PM,84.0,66.0,55,30.10,10.0,East,13.8,20.7,N/A,,Mostly Cloudy,80,2013-10-30 18:53:00
3:53 PM,82.9,66.0,56,30.10,10.0,ENE,18.4,-,N/A,,Mostly Cloudy,70,2013-10-30 19:53:00
4:53 PM,82.0,63.0,52,30.10,10.0,East,15.0,19.6,N/A,,Mostly Cloudy,80,2013-10-30 20:53:00
5:53 PM,81.0,62.1,52,30.09,10.0,ENE,15.0,21.9,N/A,,Scattered Clouds,70,2013-10-30 21:53:00
6:53 PM,80.1,63.0,56,30.10,10.0,East,13.8,-,N/A,,Scattered Clouds,90,2013-10-30 22:53:00
7:53 PM,79.0,64.9,62,30.11,10.0,East,11.5,-,N/A,,Scattered Clouds,90,2013-10-30 23:53:00
8:53 PM,79.0,66.9,66,30.12,10.0,East,15.0,19.6,N/A,,Mostly Cloudy,90,2013-10-31 00:53:00
9:53 PM,79.0,66.0,64,30.13,10.0,East,15.0,-,N/A,,Mostly Cloudy,90,2013-10-31 01:53:00
10:53 PM,79.0,66.0,64,30.13,10.0,East,13.8,-,N/A,,Scattered Clouds,90,2013-10-31 02:53:00
11:53 PM,78.1,64.9,64,30.12,10.0,East,12.7,-,N/A,,Scattered Clouds,90,2013-10-31 03:53:00